| time (UTC) | temp C | wind direction | speed KPH | gust KPH | rain 1hr cm | rain 24hr cm | rain mn cm | humidity % | barometer mb |
| 20260504183114 | 21 | 260 | 8.0 | 29.0 | 0.00 | 0.03 | 0.00 | 51 | 1007.5 |
| 20260504181606 | 22 | 169 | 11.3 | 24.1 | 0.00 | 0.03 | 0.00 | 50 | 1007.4 |
| 20260504180111 | 22 | 187 | 12.9 | 24.1 | 0.00 | 0.03 | 0.00 | 50 | 1007.3 |
| 20260504174601 | 22 | 302 | 8.0 | 22.5 | 0.00 | 0.03 | 0.00 | 49 | 1007.4 |
| 20260504173109 | 21 | 244 | 9.7 | 33.8 | 0.00 | 0.03 | 0.00 | 52 | 1007.4 |
| 20260504171610 | 21 | 248 | 11.3 | 24.1 | 0.00 | 0.03 | 0.00 | 51 | 1007.6 |
| 20260504160105 | 18 | 156 | 9.7 | 16.1 | 0.00 | 0.03 | 0.00 | 58 | 1008.6 |
| 20260504140111 | 15 | 193 | 4.8 | 16.1 | 0.00 | 0.03 | 0.00 | 62 | 1009.2 |
| 20260504120110 | 11 | 0 | 1.6 | 6.4 | 0.00 | 0.03 | 0.00 | 68 | 1009.6 |
| 20260504110107 | 9 | 0 | 1.6 | 6.4 | 0.00 | 0.03 | 0.00 | 69 | 1009.3 |
| 20260504081558 | 10 | 201 | 1.6 | 9.7 | 0.00 | 0.03 | 0.00 | 65 | 1010.4 |
| 20260504060107 | 11 | 0 | 1.6 | 8.0 | 0.00 | 0.03 | 0.00 | 61 | 1011.6 |
| 20260504044600 | 10 | 249 | 0.0 | 6.4 | 0.00 | 0.03 | 0.00 | 64 | 1012.2 |
| 20260504043101 | 10 | 127 | 0.0 | 4.8 | 0.00 | 0.03 | 0.00 | 65 | 1012.3 |
| 20260504041557 | 10 | 132 | 0.0 | 4.8 | 0.00 | 0.03 | 0.00 | 65 | 1012.4 |
| 20260504040056 | 10 | 141 | 1.6 | 4.8 | 0.00 | 0.03 | 0.00 | 66 | 1012.5 |
| 20260504034557 | 10 | 167 | 0.0 | 4.8 | 0.00 | 0.03 | 0.03 | 66 | 1012.7 |
| 20260504033115 | 10 | 145 | 1.6 | 6.4 | 0.00 | 0.03 | 0.03 | 66 | 1012.9 |
| 20260504031603 | 10 | 132 | 1.6 | 6.4 | 0.00 | 0.03 | 0.03 | 66 | 1013.1 |
| 20260504030056 | 10 | 143 | 0.0 | 4.8 | 0.00 | 0.03 | 0.03 | 67 | 1013.2 |
| 20260504024602 | 10 | 142 | 0.0 | 6.4 | 0.00 | 0.03 | 0.03 | 66 | 1013.3 |
| 20260504023058 | 10 | 125 | 1.6 | 8.0 | 0.00 | 0.03 | 0.03 | 67 | 1013.3 |
| 20260504021556 | 9 | 129 | 1.6 | 6.4 | 0.00 | 0.03 | 0.03 | 69 | 1013.3 |
| 20260504020058 | 9 | 110 | 1.6 | 8.0 | 0.00 | 0.03 | 0.03 | 73 | 1013.4 |
| 20260504014559 | 8 | 0 | 1.6 | 4.8 | 0.00 | 0.03 | 0.03 | 77 | 1013.3 |
| 20260504013107 | 8 | 139 | 0.0 | 1.6 | 0.00 | 0.03 | 0.03 | 80 | 1013.3 |
| 20260504011600 | 8 | 0 | 0.0 | 1.6 | 0.00 | 0.03 | 0.03 | 81 | 1013.4 |
| 20260504004620 | 8 | 124 | 0.0 | 3.2 | 0.00 | 0.03 | 0.03 | 80 | 1013.3 |
| 20260504003102 | 8 | 0 | 0.0 | 3.2 | 0.00 | 0.03 | 0.03 | 79 | 1013.4 |
| 20260504001608 | 8 | 0 | 0.0 | 1.6 | 0.00 | 0.03 | 0.03 | 79 | 1013.7 |
| 20260503234600 | 9 | 0 | 0.0 | 4.8 | 0.00 | 0.03 | 0.03 | 80 | 1013.5 |
| 20260503233057 | 9 | 120 | 0.0 | 4.8 | 0.00 | 0.03 | 0.03 | 81 | 1013.6 |
| 20260503231600 | 9 | 127 | 0.0 | 4.8 | 0.03 | 0.03 | 0.03 | 82 | 1013.7 |
| 20260503230110 | 8 | 0 | 0.0 | 1.6 | 0.03 | 0.03 | 0.03 | 82 | 1014.1 |
| 20260503224559 | 9 | 0 | 0.0 | 1.6 | 0.03 | 0.03 | 0.03 | 82 | 1014.3 |
| 20260503223101 | 9 | 0 | 0.0 | 9.7 | 0.03 | 0.03 | 0.03 | 77 | 1015.5 |
| 20260503221600 | 10 | 178 | 3.2 | 12.9 | 0.00 | 0.00 | 0.00 | 70 | 1015.8 |
| 20260503214607 | 12 | 232 | 8.0 | 30.6 | 0.00 | 0.00 | 0.00 | 49 | 1015.2 |
| 20260503213102 | 13 | 191 | 11.3 | 25.7 | 0.00 | 0.00 | 0.00 | 43 | 1014.9 |
| 20260503211605 | 14 | 253 | 8.0 | 19.3 | 0.00 | 0.00 | 0.00 | 38 | 1014.6 |
| 20260503210100 | 15 | 203 | 6.4 | 17.7 | 0.00 | 0.00 | 0.00 | 38 | 1014.7 |
| 20260503204600 | 15 | 226 | 8.0 | 17.7 | 0.00 | 0.00 | 0.00 | 38 | 1014.8 |
| 20260503203106 | 15 | 280 | 6.4 | 22.5 | 0.00 | 0.00 | 0.00 | 35 | 1014.9 |
| 20260503201600 | 16 | 179 | 4.8 | 19.3 | 0.00 | 0.00 | 0.00 | 36 | 1015.0 |
| 20260503200059 | 16 | 233 | 4.8 | 19.3 | 0.00 | 0.00 | 0.00 | 37 | 1015.1 |
| 20260503194559 | 16 | 290 | 6.4 | 24.1 | 0.00 | 0.00 | 0.00 | 35 | 1015.2 |
| 20260503193101 | 16 | 156 | 6.4 | 22.5 | 0.00 | 0.00 | 0.00 | 36 | 1015.5 |
| 20260503191559 | 16 | 293 | 8.0 | 20.9 | 0.00 | 0.00 | 0.00 | 35 | 1015.6 |
| 20260503190100 | 15 | 179 | 6.4 | 19.3 | 0.00 | 0.00 | 0.00 | 37 | 1015.9 |
| 20260503184608 | 15 | 249 | 9.7 | 19.3 | 0.00 | 0.00 | 0.00 | 36 | 1016.1 |